Tracking 25372 objects as of 23-Jan-2022
HD Live streaming from Space Station
objects crossing your sky now

NSS 5 (INTELSAT 803)

Track NSS 5 (INTELSAT 803) now!
NSS 5 (INTELSAT 803) is classified as:


NORAD ID: 24957
Int'l Code: 1997-053A
Perigee: 36,106.3 km
Apogee: 36,141.1 km
Inclination: 7.1 °
Period: 1,453.0 minutes
Semi major axis: 42494 km
RCS: 25.1188 m2 (large)
Launch date: September 23, 1997
Source: Netherlands (NETH)
Launch site: FRENCH GUIANA (FRGUI)

38 C-band, 6 Ku-band; Pacific Ocean region; shared capacity with Intelset.
aabbcc
Your satellite tracking list
Your tracking list is empty




NASA's NSSDC Master Catalog

Two Line Element Set (TLE):
1 24957U 97053A   22022.86376892 -.00000181  00000-0  00000+0 0  9998
2 24957   7.0831  60.0591 0004094 245.3350 302.4967  0.99106178 89120
Source of the keplerian elements: AFSPC